KN4URY Weather Reports


time (UTC)temp
C
wind
direction
speed
KPH
gust
KPH
rain 1hr
cm
rain 24hr
cm
rain mn
cm
humidity
%
barometer
mb
20260508010329 11 341 0.0 0.0 0.00 0.38 0.36 94 1011.2
20260508005318 11 341 0.0 0.0 0.00 0.38 0.36 94 1011.2
20260508004326 11 341 0.0 0.0 0.00 0.38 0.36 94 1011.1
20260508003321 11 341 0.0 0.0 0.00 0.38 0.36 94 1010.9
20260508002311 11 341 0.0 0.0 0.00 0.38 0.36 94 1010.9
20260508001329 11 341 0.0 0.0 0.00 0.38 0.36 93 1010.8
20260508000342 11 341 0.0 0.0 0.00 0.38 0.36 93 1010.8
20260507235355 11 341 0.0 0.0 0.00 0.38 0.36 93 1010.4
20260507234323 11 341 0.0 0.0 0.00 0.38 0.36 92 1010.3
20260507233312 11 341 0.0 0.0 0.00 0.38 0.36 92 1010.2
20260507232331 11 341 0.0 0.0 0.00 0.38 0.36 91 1010.2
20260507231321 12 341 0.0 0.0 0.00 0.38 0.36 90 1010.2
20260507230313 12 341 0.0 0.0 0.00 0.38 0.36 90 1010.0
20260507225330 12 341 0.0 0.0 0.00 0.38 0.36 90 1010.0
20260507224324 12 341 0.0 1.6 0.00 0.38 0.36 90 1010.2
20260507223315 12 341 0.0 0.0 0.00 0.38 0.36 90 1010.1
20260507222331 12 341 0.0 1.6 0.00 0.38 0.36 89 1010.1
20260507221321 13 341 0.0 1.6 0.00 0.38 0.36 89 1009.8
20260507220338 13 341 0.0 1.6 0.00 0.38 0.36 92 1009.8
20260507215334 12 341 0.0 1.6 0.00 0.38 0.36 90 1009.8
20260507214350 12 341 0.0 1.6 0.08 0.38 0.36 92 1009.9
20260507213320 12 341 0.0 0.0 0.15 0.38 0.36 92 1009.9
20260507212334 12 341 0.0 1.6 0.15 0.38 0.36 92 1009.9
20260507211324 12 341 0.0 0.0 0.18 0.38 0.36 93 1009.6
20260507210334 12 341 0.0 1.6 0.18 0.38 0.36 93 1009.7
20260507205323 12 341 0.0 1.6 0.18 0.38 0.36 93 1009.8
20260507204338 12 341 0.0 1.6 0.10 0.30 0.28 92 1009.8
20260507203332 12 341 0.0 1.6 0.03 0.23 0.20 92 1009.9
20260507202321 12 341 0.0 1.6 0.03 0.23 0.20 92 1009.8
20260507201336 12 341 0.0 1.6 0.03 0.20 0.18 92 1010.0
20260507200350 12 341 0.0 1.6 0.05 0.20 0.18 92 1010.2
20260507195314 12 341 0.0 1.6 0.05 0.20 0.18 92 1010.4
20260507194329 12 341 0.0 1.6 0.05 0.20 0.18 93 1010.2
20260507193319 12 341 0.0 1.6 0.05 0.20 0.18 93 1010.3
20260507192335 12 341 0.0 1.6 0.05 0.20 0.18 93 1010.4
20260507191331 12 341 0.0 1.6 0.03 0.18 0.15 93 1010.4
20260507190324 12 341 0.0 4.8 0.00 0.15 0.13 92 1010.4
20260507185312 12 341 0.0 3.2 0.00 0.15 0.13 92 1010.5
20260507184329 12 341 0.0 3.2 0.00 0.15 0.13 91 1010.5
20260507183347 12 341 1.6 3.2 0.00 0.15 0.13 91 1010.5
20260507182317 12 341 1.6 9.7 0.00 0.15 0.13 92 1010.2
20260507181324 12 341 0.0 6.4 0.03 0.15 0.13 93 1010.5
20260507180313 12 341 0.0 11.3 0.03 0.15 0.13 92 1010.4
20260507175349 12 341 0.0 8.0 0.03 0.15 0.13 93 1010.6
20260507174332 12 341 1.6 6.4 0.03 0.15 0.13 94 1010.4
20260507173322 12 341 1.6 9.7 0.03 0.15 0.13 94 1010.5
20260507172337 12 341 1.6 6.4 0.03 0.15 0.13 93 1010.5
20260507171326 12 341 1.6 9.7 0.00 0.13 0.10 92 1010.8
20260507170342 12 341 1.6 6.4 0.00 0.13 0.10 91 1010.7
20260507165356 13 341 1.6 8.0 0.00 0.13 0.10 90 1010.7
20260507164325 13 341 1.6 9.7 0.00 0.13 0.10 90 1010.7
20260507163312 13 341 0.0 8.0 0.00 0.15 0.10 89 1011.0
20260507162329 13 341 0.0 11.3 0.00 0.15 0.10 87 1011.2
20260507161333 13 341 1.6 8.0 0.00 0.15 0.10 87 1011.3
20260507160328 13 341 1.6 6.4 0.00 0.15 0.10 87 1011.3
20260507155315 13 341 1.6 9.7 0.00 0.15 0.10 86 1011.2
20260507154330 13 341 3.2 9.7 0.00 0.15 0.10 86 1010.9
20260507153319 13 341 1.6 9.7 0.00 0.23 0.10 86 1011.2
20260507152337 13 341 3.2 11.3 0.00 0.23 0.10 87 1010.7
20260507151324 13 341 1.6 4.8 0.00 0.23 0.10 88 1010.8
20260507150320 13 341 1.6 9.7 0.00 0.23 0.10 87 1010.9
20260507145357 13 341 3.2 9.7 0.00 0.23 0.10 88 1011.1
20260507144326 13 341 1.6 11.3 0.00 0.23 0.10 89 1010.9
20260507143315 13 341 3.2 14.5 0.00 0.23 0.10 89 1011.1
20260507142330 13 341 3.2 12.9 0.03 0.23 0.10 89 1011.0
20260507141344 13 341 1.6 8.0 0.03 0.23 0.10 91 1010.5
20260507140357 13 341 1.6 4.8 0.03 0.23 0.10 91 1011.1
20260507135323 13 341 1.6 11.3 0.03 0.23 0.10 91 1011.1
20260507134313 13 341 0.0 12.9 0.03 0.23 0.10 92 1011.3
20260507133330 12 341 1.6 11.3 0.03 0.23 0.10 93 1011.2
20260507132319 12 341 3.2 8.0 0.00 0.20 0.08 93 1011.4
20260507131335 12 341 0.0 4.8 0.00 0.20 0.08 94 1011.3
20260507130324 12 341 0.0 6.4 0.00 0.20 0.08 95 1010.9
20260507125315 12 341 0.0 6.4 0.00 0.20 0.08 95 1010.4
20260507124348 12 341 0.0 4.8 0.00 0.20 0.08 95 1011.2
20260507123341 12 341 0.0 3.2 0.00 0.20 0.08 95 1011.0
20260507122336 12 341 1.6 8.0 0.03 0.20 0.08 95 1011.0
20260507121329 12 341 0.0 8.0 0.03 0.20 0.08 95 1011.1
20260507120321 12 341 1.6 6.4 0.03 0.20 0.08 95 1010.9
20260507115331 12 341 1.6 6.4 0.05 0.20 0.08 95 1010.3
20260507114322 13 341 1.6 9.7 0.05 0.20 0.08 94 1010.7
20260507113357 13 341 1.6 9.7 0.05 0.20 0.08 94 1010.8
20260507112324 14 341 1.6 8.0 0.03 0.18 0.05 94 1011.0
20260507111313 16 341 4.8 19.3 0.03 0.18 0.05 92 1010.0
20260507110330 17 341 0.0 1.6 0.03 0.18 0.05 97 1009.9
20260507105318 17 341 0.0 1.6 0.03 0.15 0.03 97 1009.5
20260507104354 17 341 0.0 0.0 0.03 0.15 0.03 97 1009.4
20260507103342 17 341 0.0 0.0 0.03 0.15 0.03 97 1009.1
20260507102336 17 341 0.0 0.0 0.03 0.15 0.03 97 1009.1
20260507101325 17 341 0.0 0.0 0.03 0.15 0.03 97 1009.1
20260507100314 18 341 0.0 1.6 0.03 0.15 0.03 97 1009.1
20260507095331 18 341 0.0 0.0 0.00 0.13 0.00 97 1009.5
20260507094320 18 341 0.0 0.0 0.00 0.13 0.00 97 1009.7
20260507093335 18 341 0.0 1.6 0.00 0.13 0.00 97 1009.6
20260507092324 18 341 0.0 3.2 0.00 0.13 0.00 97 1009.5
20260507091314 18 341 0.0 4.8 0.00 0.13 0.00 97 1009.7
20260507090331 18 341 0.0 0.0 0.00 0.13 0.00 96 1010.0
20260507085348 18 341 0.0 0.0 0.00 0.13 0.00 96 1009.6
20260507084315 18 341 0.0 1.6 0.00 0.13 0.00 96 1009.6
20260507083329 18 341 0.0 3.2 0.00 0.13 0.00 96 1009.5
20260507082336 18 341 0.0 3.2 0.00 0.13 0.00 96 1009.3
20260507081326 18 341 1.6 3.2 0.00 0.13 0.00 96 1008.9
20260507080312 18 341 1.6 4.8 0.00 0.13 0.00 96 1009.1
20260507075328 18 341 0.0 4.8 0.00 0.13 0.00 96 1008.8
20260507074315 18 341 1.6 6.4 0.00 0.13 0.00 96 1008.9
20260507073331 18 341 1.6 9.7 0.00 0.13 0.00 96 1008.7
20260507072320 18 341 1.6 9.7 0.00 0.13 0.00 96 1008.4
20260507071335 18 341 1.6 6.4 0.00 0.13 0.00 96 1008.5
20260507070321 18 341 1.6 9.7 0.00 0.13 0.00 96 1009.0
20260507065315 18 341 1.6 8.0 0.00 0.13 0.00 96 1009.1
20260507064331 18 341 1.6 8.0 0.00 0.13 0.00 96 1009.5
20260507063324 18 341 0.0 11.3 0.00 0.13 0.00 96 1009.6
20260507062314 18 341 3.2 9.7 0.00 0.13 0.00 95 1009.6
20260507061322 18 341 1.6 14.5 0.00 0.13 0.00 95 1009.5
20260507060338 18 341 3.2 9.7 0.00 0.13 0.00 95 1009.6
20260507055328 18 341 1.6 8.0 0.00 0.13 0.00 95 1009.6
20260507054315 18 341 1.6 11.3 0.00 0.13 0.00 95 1009.7
20260507053332 18 341 1.6 6.4 0.00 0.13 0.13 95 1009.4
20260507052322 18 341 0.0 6.4 0.03 0.13 0.13 94 1009.6
20260507051313 18 341 1.6 6.4 0.03 0.13 0.13 94 1009.7
20260507050328 18 341 1.6 9.7 0.03 0.13 0.13 94 1010.0
20260507045316 18 341 3.2 8.0 0.03 0.13 0.13 93 1010.1
20260507044332 18 341 3.2 8.0 0.03 0.13 0.13 92 1010.2
20260507043321 19 341 3.2 19.3 0.03 0.13 0.13 91 1011.1
20260507042337 19 341 4.8 16.1 0.00 0.10 0.10 90 1011.3
20260507041324 20 341 8.0 14.5 0.00 0.10 0.10 88 1011.2
20260507040313 20 341 6.4 14.5 0.00 0.10 0.10 86 1011.3
20260507035322 20 341 4.8 11.3 0.00 0.10 0.10 86 1011.2
20260507034336 20 341 4.8 12.9 0.00 0.10 0.10 86 1010.8
20260507033324 20 341 4.8 16.1 0.00 0.10 0.10 85 1010.3
20260507032312 20 341 4.8 16.1 0.00 0.10 0.10 85 1010.5
20260507031328 20 341 4.8 12.9 0.00 0.10 0.10 85 1010.1
20260507030319 20 341 3.2 14.5 0.00 0.10 0.10 85 1009.9
20260507025335 20 341 1.6 8.0 0.00 0.10 0.10 86 1010.0
20260507024324 20 341 3.2 8.0 0.00 0.10 0.10 86 1010.3
20260507023316 20 341 3.2 8.0 0.00 0.10 0.10 86 1010.2
20260507022332 20 341 3.2 9.7 0.00 0.10 0.10 86 1010.1
20260507021319 20 341 0.0 9.7 0.00 0.10 0.10 86 1010.1
20260507020355 20 341 3.2 8.0 0.00 0.10 0.10 86 1010.1
20260507015323 20 341 3.2 6.4 0.00 0.10 0.10 86 1010.1
20260507014317 20 341 3.2 12.9 0.00 0.10 0.10 86 1010.6
20260507013332 20 341 3.2 12.9 0.00 0.10 0.10 86 1010.4
20260507012319 20 341 1.6 11.3 0.00 0.10 0.10 86 1010.2
20260507011334 20 341 4.8 9.7 0.00 0.10 0.10 86 1010.2